Flugplatz Burg Feuerstein
 
wir freuen uns auf Euch ! 

 

DSC04520

 


wir sind täglich von 9 bis 18 Uhr unter 09194 - 79 75 75 

oder 

rund um die Uhr per Diese E-Mail-Adresse ist vor Spambots geschützt! Zur Anzeige muss JavaScript eingeschaltet sein! zu erreichen !

 

Flugbetrieb an jedem fliegbaren Tag von 9 Uhr bis 19 Uhr - nach Absprache auch flexibel darüber hinaus ! 

 


 
 
jetzt anmelden

und mit dem Infobrief vom Feuerstein auf dem Laufenden bleiben ... 

 



Wir bieten professionelle und trotzdem sehr günstige Ausbildung in 4 (!) Sparten an:

Motorflug Motorsegler Segelflug Ultraleicht

 

KEINE Landegebühren:
Unsere Flugschüler zahlen am Feuerstein KEINE Landegebühren!!!
(Und sparen so bei der Ausbildung eine Menge Geld!)
Das gilt sogar auch für Scheininhaber, die mal mit Fluglehrer üben!
(gilt auch beim vorgeschriebenen "Übungsflug mit Lehrer" oder bei Einweisungs- und Checkflügen!)

 

Fränkische Fliegerschule Feuerstein e.V. · Flugplatz 1 · 91320 Ebermannstadt

Feuerstein News Ticker

Webcam Blick N

webcam 2

Webcam Blick NO

webcam 1

METAR EDDN

[Quelle: ADDS]
METAR
EDDN 241850Z 00000KT CAVOK 02/M04 Q1016 NOSIG =
TAF
EDDN 241700Z 2418/2518 30008KT 9999 FEW025 BECMG 2423/2502 13004KT TEMPO 2511/2516 24006KT =
SR / SS: 06:06 / 16:50 UTC (EDQE 2017-02-24)

Wetter EDQE


Das Wetter heute
Das Wetter morgen